Weather History for Cando, ND

Change the Weather History Date:

Thursday, November 1, 2012

  Actual Average (KDVL) Record (KDVL)
Temperature  
Mean Temperature 26 °F -  
Max Temperature 30 °F 44 °F 68 °F (1958)
Min Temperature 23 °F 27 °F -3 °F (1984)
Degree Days  
Heating Degree Days 38    
Moisture  
Dew Point 23 °F    
Average Humidity 87    
Maximum Humidity 93    
Minimum Humidity 80    
Precipitation  
Precipitation 0.00 in - - ()
Sea Level Pressure  
Sea Level Pressure 30.14 in    
Wind  
Wind Speed 10 mph (NE)    
Max Wind Speed 14 mph    
Max Gust Speed 18 mph    
Visibility 10 miles    
Events      
Averages and records for this station are not official NWS values.
T = Trace of Precipitation, MM = Missing Value Source: NWS Daily Summary

Daily Weather History Graph

Daily Weather History Graph

Search for Another Location

Airport:

Trip Planner

Search our weather history database for the weather conditions in past years. The results will help you decide how hot, cold, wet, or windy it might be!

Date:

Astronomy

Nov. 01, 2012 Rise Set
Actual Time 8:23 AM CDT 6:16 PM CDT
Civil Twilight 7:50 AM CDT 6:49 PM CDT
Nautical Twilight 7:13 AM CDT 7:26 PM CDT
Astronomical Twilight 6:37 AM CDT 8:02 PM CDT
Moon 8:04 PM CDT 11:08 AM CDT
Length of Visible Light 10h 58m
Length of Day
9h 52m
Waning Gibbous, 93% of the Moon is Illuminated
Nov 1
Waning Gibbous
Nov 6
Last Quarter
Nov 13
New
Nov 20
First Quarter
Nov 28
Full

Hourly Weather History & Observations

Time (CDT) Temp. Windchill Dew Point Humidity Pressure Visibility Wind Dir Wind Speed Gust Speed Precip Events Conditions
12:15 AM 30.2 °F 21.9 °F 26.6 °F 86% 30.13 in 10.0 mi NNE 9.2 mph - N/A   Overcast
12:35 AM 30.2 °F 20.8 °F 26.6 °F 86% 30.14 in 10.0 mi NNE 11.5 mph - N/A   Overcast
12:55 AM 28.4 °F 19.7 °F 26.6 °F 93% 30.14 in 10.0 mi NNE 9.2 mph - N/A   Overcast
1:15 AM 28.4 °F 20.4 °F 26.6 °F 93% 30.15 in 10.0 mi NNE 8.1 mph - N/A   Overcast
1:35 AM 28.4 °F 17.5 °F 26.6 °F 93% 30.16 in 10.0 mi NNE 13.8 mph - N/A   Overcast
1:55 AM 28.4 °F 19.1 °F 24.8 °F 86% 30.16 in 10.0 mi NNE 10.4 mph - N/A   Overcast
2:15 AM 28.4 °F 18.5 °F 24.8 °F 86% 30.16 in 10.0 mi NNE 11.5 mph - N/A   Overcast
2:35 AM 28.4 °F 19.1 °F 24.8 °F 86% 30.16 in 10.0 mi NNE 10.4 mph - N/A   Overcast
2:55 AM 28.4 °F 19.7 °F 24.8 °F 86% 30.16 in 10.0 mi NNE 9.2 mph - N/A   Overcast
3:15 AM 28.4 °F 19.1 °F 24.8 °F 86% 30.17 in 10.0 mi NNE 10.4 mph - N/A   Overcast
3:35 AM 28.4 °F 19.7 °F 24.8 °F 86% 30.16 in 10.0 mi North 9.2 mph - N/A   Overcast
3:55 AM 26.6 °F 17.5 °F 24.8 °F 93% 30.17 in 10.0 mi NNE 9.2 mph - N/A   Overcast
4:15 AM 26.6 °F 16.2 °F 24.8 °F 93% 30.16 in 10.0 mi NNE 11.5 mph - N/A   Overcast
4:35 AM 26.6 °F 15.7 °F 23.0 °F 86% 30.16 in 10.0 mi NNE 12.7 mph - N/A   Overcast
5:15 AM 24.8 °F 14.0 °F 23.0 °F 93% 30.16 in 10.0 mi NNE 11.5 mph 16.1 mph N/A   Overcast
5:35 AM 24.8 °F 15.3 °F 23.0 °F 93% 30.17 in 10.0 mi NNE 9.2 mph - N/A   Overcast
5:55 AM 24.8 °F 14.6 °F 23.0 °F 93% 30.17 in 10.0 mi North 10.4 mph - N/A   Overcast
6:15 AM 24.8 °F 14.6 °F 23.0 °F 93% 30.17 in 10.0 mi NE 10.4 mph - N/A   Overcast
6:35 AM 24.8 °F 14.6 °F 23.0 °F 93% 30.17 in 10.0 mi NE 10.4 mph - N/A   Overcast
6:55 AM 24.8 °F 14.6 °F 23.0 °F 93% 30.16 in 10.0 mi NE 10.4 mph - N/A   Overcast
7:15 AM 24.8 °F 15.3 °F 23.0 °F 93% 30.16 in 10.0 mi NE 9.2 mph - N/A   Overcast
7:35 AM 24.8 °F 12.9 °F 23.0 °F 93% 30.16 in 10.0 mi NNE 13.8 mph 17.3 mph N/A   Overcast
7:55 AM 24.8 °F 13.4 °F 23.0 °F 93% 30.16 in 10.0 mi NNE 12.7 mph 16.1 mph N/A   Overcast
8:35 AM 24.8 °F 13.4 °F 21.2 °F 86% 30.18 in 10.0 mi NE 12.7 mph 16.1 mph N/A   Overcast
8:55 AM 23.0 °F 12.4 °F 19.4 °F 86% 30.18 in 10.0 mi NE 10.4 mph - N/A   Overcast
9:15 AM 24.8 °F 16.9 °F 21.2 °F 86% 30.18 in 10.0 mi NNE 6.9 mph - N/A   Overcast
9:35 AM 24.8 °F 14.0 °F 21.2 °F 86% 30.19 in 10.0 mi NNE 11.5 mph - N/A   Overcast
9:55 AM 24.8 °F 14.6 °F 21.2 °F 86% 30.18 in 10.0 mi NE 10.4 mph - N/A   Overcast
10:15 AM 24.8 °F 14.6 °F 21.2 °F 86% 30.19 in 10.0 mi NNE 10.4 mph - N/A   Overcast
10:35 AM 24.8 °F 16.1 °F 21.2 °F 86% 30.19 in 10.0 mi NNE 8.1 mph - N/A   Overcast
10:55 AM 24.8 °F 15.3 °F 19.4 °F 80% 30.18 in 10.0 mi NNE 9.2 mph - N/A   Overcast
11:15 AM 24.8 °F 16.1 °F 19.4 °F 80% 30.18 in 10.0 mi NE 8.1 mph - N/A   Overcast
11:35 AM 24.8 °F 15.3 °F 21.2 °F 86% 30.17 in 10.0 mi ENE 9.2 mph - N/A   Overcast
11:55 AM 24.8 °F 14.6 °F 19.4 °F 80% 30.17 in 10.0 mi NNE 10.4 mph - N/A   Overcast
12:15 PM 26.6 °F 16.2 °F 21.2 °F 80% 30.17 in 10.0 mi NE 11.5 mph - N/A   Overcast
12:35 PM 26.6 °F 17.5 °F 21.2 °F 80% 30.16 in 10.0 mi ENE 9.2 mph - N/A   Overcast
1:15 PM 26.6 °F 16.2 °F 21.2 °F 80% 30.15 in 10.0 mi NE 11.5 mph - N/A   Overcast
1:35 PM 26.6 °F 16.8 °F 23.0 °F 86% 30.14 in 10.0 mi ENE 10.4 mph - N/A   Overcast
1:55 PM 26.6 °F 16.8 °F 21.2 °F 80% 30.14 in 10.0 mi ENE 10.4 mph - N/A   Overcast
2:15 PM 26.6 °F 17.5 °F 21.2 °F 80% 30.14 in 10.0 mi ENE 9.2 mph - N/A   Overcast
2:35 PM 26.6 °F 17.5 °F 21.2 °F 80% 30.13 in 10.0 mi NE 9.2 mph - N/A   Overcast
2:55 PM 28.4 °F 20.4 °F 23.0 °F 80% 30.13 in 10.0 mi ENE 8.1 mph - N/A   Overcast
3:15 PM 28.4 °F 19.1 °F 23.0 °F 80% 30.12 in 10.0 mi NE 10.4 mph - N/A   Overcast
3:35 PM 28.4 °F 19.7 °F 23.0 °F 80% 30.12 in 10.0 mi NE 9.2 mph - N/A   Overcast
4:15 PM 28.4 °F 20.4 °F 23.0 °F 80% 30.12 in 10.0 mi NE 8.1 mph - N/A   Overcast
4:35 PM 26.6 °F 18.2 °F 23.0 °F 86% 30.13 in 10.0 mi NE 8.1 mph - N/A   Overcast
4:55 PM 26.6 °F 19.1 °F 23.0 °F 86% 30.13 in 10.0 mi ENE 6.9 mph - N/A   Overcast
5:15 PM 26.6 °F 16.2 °F 23.0 °F 86% 30.12 in 10.0 mi ENE 11.5 mph - N/A   Overcast
5:35 PM 26.6 °F 16.8 °F 23.0 °F 86% 30.12 in 10.0 mi ENE 10.4 mph - N/A   Overcast
5:55 PM 26.6 °F 18.2 °F 23.0 °F 86% 30.11 in 10.0 mi ENE 8.1 mph - N/A   Overcast
6:15 PM 26.6 °F 16.2 °F 23.0 °F 86% 30.11 in 9.0 mi East 11.5 mph - N/A   Overcast
6:35 PM 26.6 °F 16.2 °F 23.0 °F 86% 30.11 in 10.0 mi ENE 11.5 mph - N/A   Overcast
6:55 PM 26.6 °F 16.2 °F 23.0 °F 86% 30.11 in 10.0 mi East 11.5 mph 16.1 mph N/A   Overcast
7:15 PM 26.6 °F 16.8 °F 23.0 °F 86% 30.11 in 10.0 mi ENE 10.4 mph - N/A   Overcast
7:35 PM 26.6 °F 15.7 °F 23.0 °F 86% 30.12 in 10.0 mi East 12.7 mph - N/A   Overcast
7:55 PM 26.6 °F 16.2 °F 23.0 °F 86% 30.13 in 10.0 mi ENE 11.5 mph - N/A   Overcast
8:15 PM 26.6 °F 16.2 °F 23.0 °F 86% 30.13 in 10.0 mi ENE 11.5 mph 17.3 mph N/A   Overcast
8:35 PM 26.6 °F 16.2 °F 23.0 °F 86% 30.11 in 10.0 mi ENE 11.5 mph 18.4 mph N/A   Overcast
8:55 PM 26.6 °F 16.2 °F 23.0 °F 86% 30.12 in 10.0 mi East 11.5 mph 16.1 mph N/A   Overcast
9:15 PM 26.6 °F 15.7 °F 23.0 °F 86% 30.11 in 10.0 mi East 12.7 mph - N/A   Overcast
9:35 PM 26.6 °F 18.2 °F 23.0 °F 86% 30.11 in 10.0 mi ENE 8.1 mph - N/A   Overcast
9:55 PM 26.6 °F 16.8 °F 23.0 °F 86% 30.11 in 10.0 mi East 10.4 mph - N/A   Overcast
10:15 PM 26.6 °F 15.7 °F 23.0 °F 86% 30.11 in 10.0 mi East 12.7 mph 18.4 mph N/A   Overcast
10:35 PM 26.6 °F 17.5 °F 23.0 °F 86% 30.12 in 10.0 mi East 9.2 mph - N/A   Overcast
10:55 PM 26.6 °F 17.5 °F 24.8 °F 93% 30.13 in 10.0 mi East 9.2 mph - N/A   Overcast
11:15 PM 26.6 °F 16.2 °F 24.8 °F 93% 30.12 in 10.0 mi East 11.5 mph - N/A   Overcast
11:35 PM 26.6 °F 16.2 °F 24.8 °F 93% 30.11 in 10.0 mi East 11.5 mph - N/A   Overcast
11:55 PM 26.6 °F 16.2 °F 24.8 °F 93% 30.10 in 10.0 mi East 11.5 mph - N/A   Overcast